This is the latest recevied weather packets stored in our database for station/object PY2UTU-WX. If no packets are shown the sender has not sent any weather packets the latest 10 day(s).
| Time | Temp. | Humidity | Pressure | Rain* | Wind** | Luminosity | Snow |
|---|---|---|---|---|---|---|---|
| 1778094746 | 28.89° C | 76% | 924.8 hPa | - | - | - | - |
| 1778093846 | 28.89° C | 75% | 924.8 hPa | - | - | - | - |
| 1778092946 | 28.89° C | 75% | 924.9 hPa | - | - | - | - |
| 1778092046 | 28.33° C | 74% | 925 hPa | - | - | - | - |
| 1778091146 | 28.33° C | 75% | 925.1 hPa | - | - | - | - |
| 1778090246 | 28.33° C | 76% | 925.2 hPa | - | - | - | - |
| 1778089346 | 28.33° C | 78% | 925.4 hPa | - | - | - | - |
| 1778088446 | 28.33° C | 80% | 925.7 hPa | - | - | - | - |
| 1778087546 | 28.33° C | 83% | 925.4 hPa | - | - | - | - |
| 1778086646 | 28.33° C | 83% | 925.8 hPa | - | - | - | - |
| 1778085746 | 28.33° C | 84% | 926 hPa | - | - | - | - |
| 1778084846 | 27.78° C | 84% | 926.2 hPa | - | - | - | - |
| 1778083946 | 27.78° C | 84% | 926.4 hPa | - | - | - | - |
| 1778083046 | 27.78° C | 84% | 926.7 hPa | - | - | - | - |
| 1778082146 | 28.33° C | 87% | 927 hPa | - | - | - | - |
| 1778081246 | 27.78° C | 87% | 927.2 hPa | - | - | - | - |
| 1778080346 | 27.78° C | 85% | 927.4 hPa | - | - | - | - |
| 1778079446 | 27.22° C | 88% | 927.6 hPa | - | - | - | - |
| 1778078546 | 27.78° C | 88% | 927.7 hPa | - | - | - | - |
| 1778077646 | 26.67° C | 90% | 928 hPa | - | - | - | - |
| 1778076746 | 27.22° C | 94% | 928.2 hPa | - | - | - | - |
| 1778075846 | 26.11° C | 96% | 928.4 hPa | - | - | - | - |
| 1778074946 | 26.11° C | 98% | 928.7 hPa | - | - | - | - |
| 1778074046 | 25.56° C | 98% | 928.7 hPa | - | - | - | - |
| 1778073147 | 25° C | 98% | 928.7 hPa | - | - | - | - |
* Rain since midnight (hover to see other rain measurements)
** Current wind speed in m/s (hover to see current wind gust speed)